Location: Campbell Lake
(32.1204°N, 97.6289°W)
Time: 05:25:00
(UTC+00:00)

ARIANE 6 FM1 Upper Stage - Visible Passes

Search period start: 09 December 2025 00:00
Search period end: 19 December 2025 00:00
Orbit: 522 x 611 km, 62.0° (Epoch: 08 December)

Date Brightness Start Highest point End Pass type
(mag) Time Alt. Az. Time Alt. Az. Time Alt. Az.
09 Dec 6.1 00:37:07 10° W 00:39:09 14° WSW 00:41:11 10° SW visible
12 Dec 2.8 12:52:45 10° SSW 12:56:52 78° ESE 13:00:52 10° NE visible
13 Dec 2.6 12:53:12 10° SW 12:57:15 63° WNW 13:01:14 10° NNE visible
14 Dec 5.8 11:16:49 10° SE 11:19:00 14° ESE 11:21:09 10° E visible
14 Dec 3.1 12:53:52 10° SW 12:57:41 38° NW 13:01:27 10° NNE visible
15 Dec 5.0 11:16:02 10° SSE 11:19:16 22° ESE 11:22:27 10° ENE visible
15 Dec 3.6 12:54:46 10° WSW 12:58:10 25° NW 13:01:30 10° N visible
16 Dec 4.1 11:16:10 12° S 11:19:34 36° ESE 11:23:16 10° NE visible
16 Dec 4.1 12:55:59 10° W 12:58:40 17° NW 13:01:19 10° N visible
17 Dec 3.1 11:20:16 57° E 11:20:16 57° E 11:23:51 10° NE visible
17 Dec 4.5 12:57:54 10° WNW 12:59:13 11° NW 13:00:31 10° NNW visible
18 Dec 4.4 11:22:42 22° NNE 11:22:42 22° NNE 11:24:15 10° NNE visible
